Regional Weather Roundup
Issued by NWS

Home | Current Version | Previous Version | Graphics & Text | Print | Product List | Glossary On
Versions: 1 2 3 4 5 6 7 8 9 10 11 12 13 14 15 16 17 18 19 20 21 22 23 24 25 26 27 28 29 30 31 32 33 34 35 36 37 38 39 40 41 42 43 44 45 46 47 48 49 50
000
ASUS43 KBIS 230702
RWRND

NORTH DAKOTA REGIONAL WEATHER ROUNDUP
NATIONAL WEATHER SERVICE BISMARCK ND
100 AM CST TUE JAN 23 2018

NOTE: "FAIR" INDICATES FEW OR NO CLOUDS BELOW 12,000 FEET WITH NO
SIGNIFICANT WEATHER AND/OR OBSTRUCTIONS TO VISIBILITY.


NDZ001>003-009>011-017-230800-
NORTHWEST NORTH DAKOTA

CITY           SKY/WX    TMP DP  RH WIND       PRES   REMARKS
WILLISTON      PTCLDY    22  17  81 SW9       29.98F WCI  12
MINOT          CLEAR     14  11  87 S6        29.96F WCI   5
MINOT AFB      CLOUDY    11   8  88 S6        29.95F WCI   2
$$

NDZ018>021-031>035-040>046-230800-
SOUTHWEST NORTH DAKOTA

CITY           SKY/WX    TMP DP  RH WIND       PRES   REMARKS
BISMARCK       FOG       20  18  92 SW5       30.04F VSB 1   WCI  13
DICKINSON      CLOUDY    25  19  78 W9        29.97F WCI  15
GARRISON         N/A     15  13  91 S6        29.97F WCI   6
HETTINGER ARPT CLOUDY    25  19  78 W9        30.02S WCI  15
$$

NDZ004>008-012>016-024-026-027-054-230800-
NORTHEAST NORTH DAKOTA

CITY           SKY/WX    TMP DP  RH WIND       PRES   REMARKS
GRAND FORKS    CLOUDY    22  18  85 NE6       30.06F WCI  14
GRND FRKS AFB  CLOUDY    22  16  77 CALM      30.06S
DEVILS LAKE    CLOUDY    19  17  92 S5        30.04S WCI  12
$$

NDZ022-023-025-028>030-036>039-047>053-230800-
SOUTHEAST NORTH DAKOTA

CITY           SKY/WX    TMP DP  RH WIND       PRES   REMARKS
FARGO          CLOUDY    24  19  81 N8        30.04S WCI  15
JAMESTOWN      CLOUDY    20  19  96 NW5       30.02S WCI  13
$$





USA.gov is the U.S. government's official web portal to all federal, state and local government web resources and services.